Location: Biltmore Gardens
(41.6070°N, 83.4666°W)
Time: 14:09:50
(UTC+00:00)

SL-8 Rocket - Pass Details

Date: 14 July 2020
Orbit: 957 x 990 km, 82.9° (Epoch: 04 August)

Event Time Altitude Azimuth Distance (km) Brightness Sun altitude
Exits shadow 04:32:33 38° 220° (SW) 1,435 4.6 -24.9°
Maximum altitude 04:34:48 59° 281° (W) 1,104 4.3 -25.0°
Drops below altitude 10° 04:40:52 10° 360° (N) 2,698 7.3 -25.3°
Sets 04:43:26 0° 4° (N) 3,648 8.2 -25.5°
